Nome, AK

11:33 AM AKST on February 14, 2016 (GMT -0900)
Nome

Weather History for PAOM - August, 2013

Change the Weather History Date:

Thursday, August 8, 2013

  Actual Average Record
Temperature  
Mean Temperature 58 °F 51 °F  
Max Temperature 61 °F 57 °F 83 °F (1966)
Min Temperature 55 °F 45 °F 32 °F (1908)
Degree Days  
Heating Degree Days 7 14  
Month to date heating degree days 58 112  
Since 1 June heating degree days 941 1028  
Since 1 July heating degree days 465 512  
Cooling Degree Days 0    
Month to date cooling degree days 0  
Year to date cooling degree days 7  
Since 1 June cooling degree days 7  
Growing Degree Days 10 (Base 50)    
Moisture  
Dew Point 53 °F    
Average Humidity 0    
Maximum Humidity 0    
Minimum Humidity 0    
Precipitation  
Precipitation 0.70 in 0.10 in 1.43 in (1950)
Month to date precipitation 2.15 0.84  
Year to date precipitation 11.05 8.07  
Snow  
Snow 0.00 in 0.00 in 0.00 in (2015)
Month to date snowfall 0.0 0.0  
Since 1 June snowfall 0.1 0.3  
Since 1 July snowfall 0.0 0.0  
Snow Depth 0.00 in    
Sea Level Pressure  
Sea Level Pressure 29.52 in    
Wind  
Wind Speed 6 mph (SE)    
Max Wind Speed 14 mph    
Max Gust Speed 17 mph    
Visibility 7 miles    
Events Rain    
T = Trace of Precipitation, MM = Missing Value Source: NWS Daily Summary

Daily Weather History Graph

Daily Weather History Graph

Search for Another Location

Airport or City:

Trip Planner

Search our weather history database for the weather conditions in past years. The results will help you decide how hot, cold, wet, or windy it might be!

Date:

Astronomy

Aug. 08, 2013 Rise Set
Actual Time 6:29 AM AKDT 11:42 PM AKDT
Civil Twilight 5:12 AM AKDT 12:57 AM AKDT
Nautical Twilight Sun does not rise 2:34 AM AKDT
Astronomical Twilight Sun does not rise Sun does not rise
Moon 9:42 AM AKDT (8/8) 11:03 PM AKDT (8/8)
Length of Visible Light 19h 44m
Length of Day
17h 13m
Waxing Crescent, 4% of the Moon is Illuminated
Aug 8
Waxing Crescent
Aug 14
First Quarter
Aug 20
Full
Aug 28
Last Quarter
Sep 5
New

Hourly Weather History & Observations

Time (AKDT) Temp. Dew Point Humidity Pressure Visibility Wind Dir Wind Speed Gust Speed Precip Events Conditions
12:53 AM 57.0 °F 50.0 °F 77% 29.55 in 10.0 mi North 4.6 mph - N/A   Mostly Cloudy
1:53 AM 60.1 °F 50.0 °F 69% 29.56 in 10.0 mi NE 6.9 mph - N/A   Mostly Cloudy
2:53 AM 57.9 °F 50.0 °F 75% 29.57 in 10.0 mi ESE 6.9 mph - N/A   Mostly Cloudy
3:53 AM 59.0 °F 51.1 °F 75% 29.57 in 10.0 mi ENE 5.8 mph - N/A   Overcast
4:53 AM 57.9 °F 52.0 °F 81% 29.56 in 10.0 mi North 3.5 mph - 0.00 in Rain Light Rain
5:53 AM 57.0 °F 52.0 °F 83% 29.57 in 10.0 mi East 8.1 mph - 0.00 in Rain Light Rain
6:53 AM 57.0 °F 53.1 °F 87% 29.56 in 10.0 mi East 4.6 mph - 0.00 in   Overcast
7:53 AM 57.0 °F 53.1 °F 87% 29.56 in 6.0 mi Calm Calm - 0.02 in Rain Light Rain
8:29 AM 55.4 °F 53.6 °F 94% 29.56 in 5.0 mi Calm Calm - 0.04 in Rain Light Rain
8:53 AM 55.0 °F 54.0 °F 96% 29.55 in 4.0 mi Calm Calm - 0.08 in Rain Rain
9:53 AM 55.0 °F 54.0 °F 96% 29.54 in 3.0 mi Calm Calm - 0.10 in Rain Rain
9:55 AM 55.4 °F 53.6 °F 94% 29.54 in 2.5 mi Calm Calm - 0.01 in Rain Rain
9:58 AM 55.4 °F 53.6 °F 94% 29.54 in 4.0 mi Calm Calm - 0.01 in Rain Rain
10:53 AM 55.0 °F 54.0 °F 96% 29.54 in 4.0 mi Calm Calm - 0.12 in Rain Light Rain
11:29 AM 55.4 °F 53.6 °F 94% 29.52 in 4.0 mi WSW 3.5 mph - 0.05 in Rain Light Rain
11:53 AM 55.0 °F 54.0 °F 96% 29.52 in 4.0 mi West 4.6 mph - 0.09 in Rain Light Rain
12:00 PM 55.4 °F 53.6 °F 94% 29.52 in 4.0 mi West 4.6 mph - 0.01 in Rain Rain
12:17 PM 55.4 °F 53.6 °F 94% 29.51 in 4.0 mi West 6.9 mph - 0.04 in Rain Light Rain
12:45 PM 55.4 °F 53.6 °F 94% 29.51 in 5.0 mi West 6.9 mph - 0.08 in Rain Light Rain
12:53 PM 55.0 °F 54.0 °F 96% 29.52 in 4.0 mi West 6.9 mph - 0.09 in Rain Light Rain
1:04 PM 55.4 °F 55.4 °F 100% 29.52 in 6.0 mi WSW 6.9 mph - 0.01 in Rain Light Rain
1:53 PM 55.9 °F 55.0 °F 97% 29.51 in 6.0 mi WSW 5.8 mph - 0.05 in Rain Light Rain
2:53 PM 55.9 °F 55.0 °F 97% 29.50 in 6.0 mi South 6.9 mph - 0.05 in Rain Light Rain
3:18 PM 55.4 °F 53.6 °F 94% 29.50 in 6.0 mi SSE 8.1 mph - 0.02 in Rain Light Rain
3:43 PM 55.4 °F 53.6 °F 94% 29.50 in 5.0 mi SSE 6.9 mph - 0.06 in Rain Light Rain
3:53 PM 55.0 °F 54.0 °F 96% 29.50 in 6.0 mi SE 6.9 mph - 0.07 in Rain Light Rain
4:05 PM 55.4 °F 53.6 °F 94% 29.50 in 6.0 mi SSE 8.1 mph - 0.01 in Rain Light Rain
4:47 PM 55.4 °F 53.6 °F 94% 29.50 in 10.0 mi ESE 5.8 mph - 0.02 in Rain Light Rain
4:51 PM 55.4 °F 53.6 °F 94% 29.50 in 10.0 mi ESE 5.8 mph - 0.02 in Rain Light Rain
4:53 PM 55.9 °F 54.0 °F 93% 29.50 in 10.0 mi ESE 6.9 mph - 0.02 in Rain Light Rain
5:53 PM 57.0 °F 54.0 °F 89% 29.50 in 10.0 mi East 6.9 mph - 0.01 in Rain Light Rain
6:53 PM 57.9 °F 52.0 °F 81% 29.49 in 10.0 mi SE 13.8 mph - 0.00 in   Overcast
7:53 PM 57.9 °F 52.0 °F 81% 29.48 in 10.0 mi ESE 10.4 mph - N/A   Overcast
8:53 PM 57.9 °F 54.0 °F 87% 29.48 in 10.0 mi East 4.6 mph - N/A   Mostly Cloudy
9:53 PM 57.9 °F 53.1 °F 84% 29.47 in 10.0 mi East 6.9 mph - N/A   Overcast
10:53 PM 55.9 °F 52.0 °F 87% 29.48 in 10.0 mi ESE 5.8 mph - N/A   Mostly Cloudy
11:53 PM 57.0 °F 50.0 °F 77% 29.48 in 10.0 mi SE 12.7 mph - N/A   Overcast